| time (UTC) | temp F | wind direction | speed MPH | gust MPH | rain 1hr in | rain 24hr in | rain mn in | humidity % | barometer mb |
| 20260506221515 | 62 | 0 | 9.0 | 18.0 | 0.00 | 0.01 | 0.00 | 47 | 1013.6 |
| 20260506220515 | 62 | 0 | 11.0 | 17.0 | 0.00 | 0.01 | 0.00 | 47 | 1013.6 |
| 20260506215515 | 62 | 0 | 8.0 | 14.0 | 0.00 | 0.01 | 0.00 | 49 | 1013.5 |
| 20260506214555 | 61 | 0 | 7.0 | 14.0 | 0.00 | 0.01 | 0.00 | 50 | 1013.7 |
| 20260506213515 | 61 | 0 | 6.0 | 14.0 | 0.00 | 0.01 | 0.00 | 50 | 1014.0 |
| 20260506212555 | 61 | 0 | 7.0 | 16.0 | 0.00 | 0.01 | 0.00 | 50 | 1013.9 |
| 20260506211517 | 62 | 0 | 5.0 | 13.0 | 0.00 | 0.01 | 0.00 | 50 | 1014.1 |
| 20260506210557 | 60 | 0 | 5.0 | 14.0 | 0.00 | 0.01 | 0.00 | 51 | 1013.8 |
| 20260506205517 | 59 | 0 | 9.0 | 13.0 | 0.00 | 0.01 | 0.00 | 53 | 1013.7 |
| 20260506204516 | 60 | 0 | 7.0 | 13.0 | 0.00 | 0.01 | 0.00 | 53 | 1013.9 |
| 20260506202557 | 59 | 0 | 5.0 | 10.0 | 0.00 | 0.01 | 0.00 | 53 | 1014.1 |
| 20260506201516 | 60 | 0 | 6.0 | 14.0 | 0.00 | 0.01 | 0.00 | 52 | 1014.2 |
| 20260506200557 | 59 | 0 | 6.0 | 15.0 | 0.00 | 0.01 | 0.00 | 54 | 1014.2 |
| 20260506195517 | 59 | 0 | 6.0 | 11.0 | 0.00 | 0.01 | 0.00 | 54 | 1014.3 |
| 20260506194516 | 58 | 0 | 5.0 | 12.0 | 0.00 | 0.01 | 0.00 | 56 | 1014.2 |
| 20260506192557 | 58 | 0 | 8.0 | 13.0 | 0.00 | 0.01 | 0.00 | 57 | 1014.4 |
| 20260506191516 | 57 | 0 | 8.0 | 15.0 | 0.00 | 0.01 | 0.00 | 57 | 1014.6 |
| 20260506190516 | 57 | 0 | 6.0 | 15.0 | 0.00 | 0.01 | 0.00 | 59 | 1014.8 |
| 20260506185516 | 57 | 0 | 7.0 | 15.0 | 0.00 | 0.01 | 0.00 | 59 | 1015.0 |
| 20260506184516 | 56 | 0 | 5.0 | 10.0 | 0.00 | 0.01 | 0.00 | 62 | 1015.1 |
| 20260506183516 | 56 | 0 | 8.0 | 13.0 | 0.00 | 0.01 | 0.00 | 60 | 1015.3 |
| 20260506182556 | 55 | 0 | 4.0 | 11.0 | 0.00 | 0.01 | 0.00 | 64 | 1015.4 |
| 20260506181636 | 53 | 0 | 5.0 | 14.0 | 0.00 | 0.01 | 0.00 | 66 | 1015.1 |
| 20260506180516 | 54 | 0 | 4.0 | 11.0 | 0.00 | 0.01 | 0.00 | 64 | 1015.4 |
| 20260506175516 | 53 | 0 | 5.0 | 11.0 | 0.00 | 0.01 | 0.00 | 67 | 1015.6 |
| 20260506174516 | 52 | 0 | 4.0 | 12.0 | 0.00 | 0.01 | 0.00 | 67 | 1015.4 |
| 20260506173516 | 51 | 0 | 4.0 | 4.0 | 0.00 | 0.01 | 0.00 | 71 | 1015.7 |
| 20260506172056 | 50 | 0 | 3.0 | 8.0 | 0.00 | 0.01 | 0.00 | 72 | 1015.3 |
| 20260506170016 | 49 | 0 | 3.0 | 9.0 | 0.00 | 0.01 | 0.00 | 72 | 1015.1 |
| 20260506165136 | 49 | 0 | 4.0 | 10.0 | 0.00 | 0.01 | 0.00 | 73 | 1015.1 |
| 20260506164016 | 47 | 0 | 3.0 | 9.0 | 0.00 | 0.01 | 0.00 | 77 | 1014.9 |
| 20260506163016 | 46 | 0 | 4.0 | 8.0 | 0.00 | 0.01 | 0.00 | 78 | 1014.8 |
| 20260506161056 | 45 | 0 | 4.0 | 8.0 | 0.00 | 0.01 | 0.00 | 80 | 1015.0 |
| 20260506160136 | 45 | 0 | 2.0 | 4.0 | 0.00 | 0.01 | 0.00 | 81 | 1015.0 |
| 20260506155016 | 45 | 0 | 2.0 | 5.0 | 0.00 | 0.01 | 0.00 | 81 | 1015.1 |
| 20260506154016 | 44 | 0 | 2.0 | 5.0 | 0.00 | 0.01 | 0.00 | 82 | 1014.9 |
| 20260506153016 | 44 | 0 | 2.0 | 4.0 | 0.00 | 0.01 | 0.00 | 83 | 1014.9 |
| 20260506152016 | 44 | 0 | 1.0 | 4.0 | 0.00 | 0.01 | 0.00 | 82 | 1014.8 |
| 20260506150016 | 43 | 0 | 2.0 | 4.0 | 0.00 | 0.01 | 0.00 | 82 | 1014.7 |
| 20260506145016 | 43 | 0 | 2.0 | 8.0 | 0.00 | 0.01 | 0.00 | 83 | 1014.8 |
| 20260506144056 | 43 | 0 | 2.0 | 4.0 | 0.00 | 0.01 | 0.00 | 83 | 1014.8 |
| 20260506143056 | 43 | 0 | 2.0 | 4.0 | 0.00 | 0.01 | 0.00 | 83 | 1014.7 |
| 20260506142016 | 43 | 0 | 2.0 | 5.0 | 0.00 | 0.01 | 0.00 | 83 | 1014.7 |
| 20260506141136 | 42 | 0 | 3.0 | 6.0 | 0.00 | 0.01 | 0.00 | 84 | 1014.6 |
| 20260506135056 | 42 | 0 | 3.0 | 6.0 | 0.00 | 0.01 | 0.00 | 84 | 1015.1 |
| 20260506134056 | 42 | 0 | 3.0 | 6.0 | 0.00 | 0.01 | 0.00 | 84 | 1015.0 |
| 20260506133015 | 41 | 0 | 4.0 | 8.0 | 0.00 | 0.01 | 0.00 | 84 | 1014.9 |
| 20260506132016 | 42 | 0 | 3.0 | 6.0 | 0.00 | 0.01 | 0.00 | 83 | 1014.9 |
| 20260506131016 | 42 | 0 | 2.0 | 6.0 | 0.00 | 0.01 | 0.00 | 83 | 1014.8 |
| 20260506130015 | 42 | 0 | 3.0 | 8.0 | 0.00 | 0.01 | 0.00 | 83 | 1014.9 |
| 20260506125136 | 41 | 0 | 2.0 | 4.0 | 0.00 | 0.01 | 0.00 | 84 | 1014.8 |
| 20260506124015 | 41 | 0 | 2.0 | 5.0 | 0.00 | 0.01 | 0.00 | 84 | 1014.9 |
| 20260506123055 | 41 | 0 | 2.0 | 6.0 | 0.00 | 0.01 | 0.00 | 84 | 1014.8 |
| 20260506122015 | 41 | 0 | 3.0 | 8.0 | 0.00 | 0.01 | 0.00 | 84 | 1014.8 |
| 20260506121055 | 41 | 0 | 2.0 | 8.0 | 0.00 | 0.01 | 0.00 | 84 | 1014.8 |
| 20260506120015 | 41 | 0 | 3.0 | 4.0 | 0.00 | 0.01 | 0.00 | 83 | 1014.6 |
| 20260506114135 | 41 | 0 | 1.0 | 4.0 | 0.00 | 0.01 | 0.00 | 83 | 1014.1 |
| 20260506113015 | 41 | 0 | 2.0 | 6.0 | 0.00 | 0.01 | 0.00 | 83 | 1013.8 |
| 20260506111015 | 41 | 0 | 3.0 | 5.0 | 0.00 | 0.01 | 0.00 | 83 | 1013.6 |
| 20260506110015 | 41 | 0 | 2.0 | 8.0 | 0.00 | 0.01 | 0.00 | 82 | 1013.6 |
| 20260506105015 | 41 | 0 | 3.0 | 8.0 | 0.00 | 0.01 | 0.00 | 82 | 1013.7 |
| 20260506104056 | 41 | 0 | 3.0 | 9.0 | 0.00 | 0.01 | 0.00 | 82 | 1013.5 |
| 20260506103015 | 41 | 0 | 3.0 | 8.0 | 0.00 | 0.01 | 0.00 | 81 | 1013.8 |
| 20260506102015 | 41 | 0 | 1.0 | 5.0 | 0.00 | 0.01 | 0.00 | 81 | 1013.7 |
| 20260506101015 | 41 | 0 | 3.0 | 8.0 | 0.00 | 0.01 | 0.00 | 81 | 1013.7 |
| 20260506095015 | 41 | 0 | 1.0 | 3.0 | 0.00 | 0.01 | 0.00 | 81 | 1014.0 |
| 20260506094055 | 41 | 0 | 1.0 | 4.0 | 0.00 | 0.01 | 0.00 | 81 | 1014.4 |
| 20260506093015 | 41 | 0 | 3.0 | 6.0 | 0.00 | 0.01 | 0.00 | 80 | 1013.3 |
| 20260506092015 | 41 | 0 | 2.0 | 8.0 | 0.00 | 0.01 | 0.00 | 80 | 1013.3 |
| 20260506091055 | 41 | 0 | 3.0 | 9.0 | 0.00 | 0.01 | 0.00 | 80 | 1013.4 |
| 20260506090055 | 40 | 0 | 2.0 | 4.0 | 0.00 | 0.01 | 0.00 | 80 | 1012.9 |
| 20260506085015 | 40 | 0 | 0.0 | 2.0 | 0.00 | 0.01 | 0.00 | 79 | 1013.0 |
| 20260506084055 | 40 | 0 | 1.0 | 2.0 | 0.00 | 0.01 | 0.00 | 79 | 1012.5 |
| 20260506083015 | 41 | 0 | 0.0 | 2.0 | 0.00 | 0.01 | 0.00 | 78 | 1012.2 |
| 20260506082055 | 41 | 0.0 | 0.0 | 0.00 | 0.01 | 0.00 | 78 | 1012.4 | |
| 20260506081015 | 41 | 0.0 | 0.0 | 0.00 | 0.01 | 0.00 | 78 | 1012.3 | |
| 20260506073015 | 43 | 0.0 | 1.0 | 0.00 | 0.01 | 0.00 | 75 | 1013.2 | |
| 20260506072135 | 43 | 0 | 1.0 | 2.0 | 0.00 | 0.01 | 0.00 | 75 | 1012.9 |
| 20260506071015 | 44 | 0 | 1.0 | 5.0 | 0.00 | 0.01 | 0.00 | 75 | 1013.2 |
| 20260506070135 | 44 | 0 | 2.0 | 8.0 | 0.00 | 0.01 | 0.00 | 75 | 1013.0 |
| 20260506062017 | 45 | 0 | 5.0 | 13.0 | 0.00 | 0.01 | 0.00 | 75 | 1012.4 |
| 20260506061057 | 45 | 0 | 7.0 | 14.0 | 0.00 | 0.01 | 0.00 | 75 | 1012.1 |
| 20260506060137 | 45 | 0 | 6.0 | 13.0 | 0.00 | 0.01 | 0.01 | 74 | 1012.1 |
| 20260506051016 | 47 | 0 | 5.0 | 10.0 | 0.00 | 0.01 | 0.01 | 68 | 1012.1 |
| 20260506045056 | 48 | 0 | 2.0 | 6.0 | 0.00 | 0.01 | 0.01 | 68 | 1011.8 |
| 20260506044016 | 48 | 0 | 5.0 | 9.0 | 0.00 | 0.01 | 0.01 | 68 | 1011.3 |
| 20260506043016 | 48 | 0 | 5.0 | 10.0 | 0.00 | 0.01 | 0.01 | 69 | 1011.0 |
| 20260506042015 | 49 | 0 | 6.0 | 10.0 | 0.00 | 0.01 | 0.01 | 67 | 1011.1 |
| 20260506041056 | 50 | 0 | 4.0 | 11.0 | 0.00 | 0.01 | 0.01 | 66 | 1010.8 |
| 20260506040016 | 50 | 0 | 4.0 | 11.0 | 0.00 | 0.01 | 0.01 | 64 | 1010.5 |
| 20260506035056 | 51 | 0 | 3.0 | 8.0 | 0.00 | 0.01 | 0.01 | 64 | 1010.4 |
| 20260506034015 | 51 | 0 | 4.0 | 9.0 | 0.00 | 0.01 | 0.01 | 63 | 1010.1 |
| 20260506033015 | 52 | 0 | 3.0 | 10.0 | 0.00 | 0.01 | 0.01 | 63 | 1010.3 |
| 20260506032015 | 52 | 0 | 4.0 | 9.0 | 0.00 | 0.01 | 0.01 | 62 | 1009.7 |
| 20260506031135 | 52 | 0 | 4.0 | 10.0 | 0.00 | 0.01 | 0.01 | 63 | 1009.4 |
| 20260506025015 | 53 | 0 | 6.0 | 9.0 | 0.00 | 0.01 | 0.01 | 63 | 1008.9 |
| 20260506024015 | 53 | 0 | 1.0 | 8.0 | 0.00 | 0.01 | 0.01 | 63 | 1008.8 |
| 20260506023135 | 53 | 0 | 4.0 | 13.0 | 0.00 | 0.01 | 0.01 | 63 | 1008.6 |
| 20260506022136 | 53 | 0 | 2.0 | 9.0 | 0.00 | 0.01 | 0.01 | 63 | 1008.4 |
| 20260506021015 | 54 | 0 | 3.0 | 13.0 | 0.00 | 0.01 | 0.01 | 62 | 1008.3 |
| 20260506020055 | 54 | 0 | 5.0 | 12.0 | 0.00 | 0.01 | 0.01 | 62 | 1008.0 |
| 20260506015055 | 54 | 0 | 6.0 | 11.0 | 0.00 | 0.01 | 0.01 | 61 | 1007.7 |
| 20260506014055 | 55 | 0 | 5.0 | 12.0 | 0.00 | 0.01 | 0.01 | 61 | 1007.8 |
| 20260506013015 | 56 | 0 | 4.0 | 10.0 | 0.00 | 0.01 | 0.01 | 59 | 1007.7 |
| 20260506012055 | 57 | 0 | 6.0 | 12.0 | 0.00 | 0.01 | 0.01 | 58 | 1007.3 |
| 20260506010015 | 59 | 0 | 7.0 | 14.0 | 0.00 | 0.01 | 0.01 | 54 | 1007.1 |
| 20260506005055 | 60 | 0 | 5.0 | 14.0 | 0.00 | 0.01 | 0.01 | 53 | 1006.9 |
| 20260506004015 | 61 | 0 | 6.0 | 13.0 | 0.00 | 0.01 | 0.01 | 52 | 1007.1 |
| 20260506002015 | 62 | 0 | 4.0 | 11.0 | 0.00 | 0.01 | 0.01 | 52 | 1006.8 |
| 20260506000055 | 63 | 0 | 3.0 | 9.0 | 0.00 | 0.01 | 0.01 | 53 | 1007.1 |
| 20260505234135 | 63 | 0 | 4.0 | 13.0 | 0.00 | 0.01 | 0.01 | 53 | 1007.3 |
| 20260505233015 | 62 | 0 | 4.0 | 9.0 | 0.01 | 0.01 | 0.01 | 56 | 1007.1 |
| 20260505232015 | 61 | 0 | 3.0 | 12.0 | 0.01 | 0.01 | 0.01 | 56 | 1007.2 |
| 20260505231015 | 61 | 0 | 7.0 | 13.0 | 0.01 | 0.01 | 0.01 | 56 | 1007.4 |
| 20260505225015 | 60 | 0 | 5.0 | 11.0 | 0.01 | 0.01 | 0.01 | 67 | 1007.9 |
| 20260505224055 | 60 | 0 | 1.0 | 4.0 | 0.01 | 0.01 | 0.01 | 62 | 1008.4 |
| 20260505223015 | 61 | 0 | 2.0 | 4.0 | 0.00 | 0.00 | 0.00 | 54 | 1009.0 |